Weather reports worldwide

Advertisment
Orense, Spain (8048): temperature & dewpoint: 16.06.2018 20:00:00 - 22.06.2018 20:00:00 (CEST)Orense, Spain (8048): wind speed: 16.06.2018 20:00:00 - 22.06.2018 20:00:00 (CEST)Orense, Spain (8048): wind direction: 16.06.2018 20:00:00 - 22.06.2018 20:00:00 (CEST)Orense, Spain (8048): reduced air pressure: 16.06.2018 20:00:00 - 22.06.2018 20:00:00 (CEST)Orense, Spain (8048): visibility: 16.06.2018 20:00:00 - 22.06.2018 20:00:00 (CEST)Orense, Spain (8048): precipitation: 16.06.2018 20:00:00 - 22.06.2018 20:00:00 (CEST)
Date & Time tt [°C] td [°C] ff [km/h] ff [kn] dd ppp [hPa] vv [km] rr [mm]
22.06.2018 20:00:00 30,3 20,3 5 3 N 1014,3 20 -
22.06.2018 19:00:00 31,4 19,4 5 3 NNE 1014,2 20 0,0
22.06.2018 18:00:00 31,3 18,6 5 3 N 1014,7 20 0,0
22.06.2018 17:00:00 30,6 19,0 5 3 NNE 1015,1 20 -
22.06.2018 16:00:00 29,3 19,6 4 2 WNW 1015,8 20 0,0
22.06.2018 15:00:00 27,1 17,8 5 3 NNE 1017,1 20 0,0
22.06.2018 14:00:00 25,2 17,4 5 3 WNW 1018,4 20 -
22.06.2018 13:00:00 23,6 18,0 5 3 NNE 1018,6 20 0,0
22.06.2018 12:00:00 21,5 17,5 4 2 SSE 1019,0 17 0,0
22.06.2018 11:00:00 20,6 17,6 4 2 SSE 1019,5 18 -
22.06.2018 10:00:00 19,2 17,3 5 3 S 1019,9 10 0,0
22.06.2018 09:00:00 18,7 16,5 4 2 E 1019,1 12 0,0
22.06.2018 08:00:00 18,1 17,1 4 2 ENE 1019,0 12 -
22.06.2018 07:00:00 17,8 16,8 2 1 S 1018,9 7 0,0
22.06.2018 06:00:00 17,5 16,7 2 1 WSW 1018,3 8 0,0
22.06.2018 05:00:00 17,6 16,6 8 4 S 1018,2 8 -
22.06.2018 04:00:00 18,2 16,9 2 1 NNW 1017,7 18 0,0
22.06.2018 03:00:00 18,5 17,2 5 3 SE 1018,3 16 0,2
22.06.2018 02:00:00 18,9 17,4 5 3 WNW 1019,2 12 -
22.06.2018 01:00:00 18,7 17,4 5 3 S 1019,8 20 5,0
22.06.2018 00:00:00 19,3 17,3 15 8 W 1020,2 0,3 26,0
21.06.2018 23:00:00 22,7 16,5 4 2 NNW 1018,0 20 -
21.06.2018 22:00:00 24,0 17,0 4 2 W 1017,2 20 0,0
21.06.2018 21:00:00 26,1 18,0 8 4 NE 1016,5 20 0,0
21.06.2018 20:00:00 28,3 18,7 4 2 NE 1016,0 20 -
21.06.2018 19:00:00 29,9 19,3 8 4 NE 1015,9 20 0,0
21.06.2018 18:00:00 30,6 19,0 5 3 NE 1015,2 20 0,0
21.06.2018 17:00:00 33,0 19,1 5 3 ENE 1015,0 20 -
21.06.2018 16:00:00 31,2 19,2 4 2 N 1015,8 20 0,0
21.06.2018 15:00:00 29,0 18,7 5 3 NE 1016,9 20 0,0
21.06.2018 14:00:00 27,6 19,1 4 2 W 1018,0 20 -
21.06.2018 13:00:00 25,7 17,9 8 4 W 1018,8 20 0,0
21.06.2018 12:00:00 24,5 18,0 4 2 N 1019,0 9 0,0
21.06.2018 11:00:00 22,7 17,4 4 2 N 1018,9 16 -
21.06.2018 10:00:00 21,0 17,0 5 3 NE 1018,7 19 0,0
21.06.2018 09:00:00 20,0 17,0 4 2 ENE 1018,5 16 0,0
21.06.2018 08:00:00 19,7 16,7 4 2 ENE 1017,7 20 -
21.06.2018 07:00:00 19,4 16,8 4 2 E 1017,6 17 0,0
21.06.2018 06:00:00 19,9 16,7 4 2 NNW 1017,2 19 0,0
21.06.2018 05:00:00 19,6 17,2 4 2 W 1016,8 17 -
21.06.2018 04:00:00 19,9 17,3 2 1 WNW 1016,7 18 0,0
21.06.2018 03:00:00 20,6 17,6 4 2 ENE 1016,9 16 0,0
21.06.2018 02:00:00 21,4 17,8 4 2 SW 1017,3 20 -
21.06.2018 01:00:00 22,1 17,5 2 1 W 1017,8 20 0,0
21.06.2018 00:00:00 22,7 17,6 4 2 W 1018,6 20 0,0
20.06.2018 23:00:00 23,5 17,9 2 1 W 1017,7 20 -
20.06.2018 22:00:00 24,5 17,0 4 2 SW 1016,8 20 0,0
20.06.2018 21:00:00 25,6 17,3 2 1 S 1016,4 20 0,0
20.06.2018 20:00:00 26,2 17,0 4 2 SSE 1015,8 19 -
20.06.2018 19:00:00 27,3 18,0 8 4 SW 1015,6 20 0,0
20.06.2018 18:00:00 28,0 18,4 4 2 WNW 1015,4 20 0,0
20.06.2018 17:00:00 28,3 17,8 11 6 S 1015,1 20 -
20.06.2018 16:00:00 31,5 14,6 5 3 WSW 1014,1 20 0,0
20.06.2018 15:00:00 33,9 12,8 5 3 WNW 1013,9 20 0,0
20.06.2018 14:00:00 31,8 17,7 4 2 N 1014,5 20 -
20.06.2018 13:00:00 29,0 18,1 5 3 W 1015,2 20 0,0
20.06.2018 12:00:00 26,3 17,9 4 2 NW 1016,0 19 0,0
20.06.2018 11:00:00 23,7 17,0 5 3 W 1016,6 20 -
20.06.2018 10:00:00 20,9 16,3 2 1 S 1017,1 19 0,0
20.06.2018 09:00:00 19,1 15,8 2 1 S 1017,3 19 0,0
20.06.2018 08:00:00 17,6 15,2 2 1 SW 1017,4 20 -
20.06.2018 07:00:00 17,6 15,2 2 1 S 1017,1 19 0,0
20.06.2018 06:00:00 18,4 15,6 2 1 SE 1016,7 20 0,0
20.06.2018 05:00:00 19,1 15,8 2 1 SE 1016,5 20 -
20.06.2018 04:00:00 20,1 16,1 2 1 S 1016,3 20 0,0
20.06.2018 03:00:00 21,0 16,4 4 2 SE 1016,3 20 0,0
20.06.2018 02:00:00 22,2 16,7 2 1 SE 1016,3 20 -
20.06.2018 01:00:00 23,9 16,7 2 1 E 1016,2 20 0,0
20.06.2018 00:00:00 25,9 16,2 4 2 ENE 1015,9 20 0,0
19.06.2018 23:00:00 27,6 16,9 2 1 SSE 1015,2 20 -
19.06.2018 22:00:00 30,2 17,3 5 3 NE 1014,2 20 0,0
19.06.2018 21:00:00 34,1 15,1 4 2 WSW 1013,5 20 0,0
19.06.2018 20:00:00 34,3 15,7 5 3 W 1013,6 20 -
19.06.2018 19:00:00 34,6 14,5 4 2 WNW 1013,8 20 0,0
19.06.2018 18:00:00 33,8 14,3 5 3 W 1014,3 20 0,0
19.06.2018 17:00:00 33,6 14,6 5 3 W 1014,8 20 -
19.06.2018 16:00:00 32,2 16,1 5 3 ENE 1015,2 19 0,0
19.06.2018 15:00:00 30,7 15,9 4 2 N 1015,8 20 0,0
19.06.2018 14:00:00 29,3 16,1 5 3 NNE 1016,7 20 -
19.06.2018 13:00:00 27,6 16,2 5 3 NNE 1017,5 20 0,0
19.06.2018 12:00:00 24,7 14,8 5 3 N 1018,4 20 0,0
19.06.2018 11:00:00 22,1 14,7 4 2 NNE 1019,2 20 -
19.06.2018 10:00:00 19,3 14,1 4 2 SSE 1019,9 20 0,0
19.06.2018 09:00:00 17,0 13,5 2 1 SE 1020,5 20 0,0
19.06.2018 08:00:00 14,8 12,5 2 1 SSE 1020,9 20 -
19.06.2018 07:00:00 15,0 12,5 4 2 SSE 1020,9 20 0,0
19.06.2018 06:00:00 16,2 12,9 2 1 E 1020,6 20 0,0
19.06.2018 05:00:00 16,7 13,2 2 1 SSE 1020,9 20 -
19.06.2018 04:00:00 17,7 13,0 2 1 E 1021,0 20 0,0
19.06.2018 03:00:00 18,6 13,0 4 2 NNE 1021,0 20 0,0
19.06.2018 02:00:00 19,4 13,3 5 3 N 1021,1 20 -
19.06.2018 01:00:00 20,4 13,6 4 2 NNE 1021,3 20 0,0
19.06.2018 00:00:00 21,7 14,1 5 3 NNW 1021,1 20 0,0
18.06.2018 23:00:00 23,0 14,3 5 3 NNW 1020,6 20 -
18.06.2018 22:00:00 25,1 14,8 5 3 NE 1019,9 20 0,0
18.06.2018 21:00:00 28,0 15,6 5 3 N 1019,5 20 0,0
18.06.2018 20:00:00 29,5 16,0 8 4 N 1019,0 20 -
18.06.2018 19:00:00 31,4 15,8 5 3 N 1018,9 20 0,0
18.06.2018 18:00:00 32,2 14,8 8 4 NNW 1018,9 20 0,0
18.06.2018 17:00:00 32,4 16,3 5 3 NNW 1019,4 20 -
18.06.2018 16:00:00 31,6 16,7 8 4 NE 1019,7 20 0,0
18.06.2018 15:00:00 30,3 16,3 4 2 NNE 1020,8 20 0,0
18.06.2018 14:00:00 28,6 15,8 5 3 N 1021,7 20 -
18.06.2018 13:00:00 26,3 14,1 5 3 NNE 1022,5 20 0,0
18.06.2018 12:00:00 24,1 13,6 5 3 N 1023,2 20 0,0
18.06.2018 11:00:00 21,6 13,0 4 2 N 1024,0 20 -
18.06.2018 10:00:00 19,2 12,7 4 2 NNE 1024,7 20 0,0
18.06.2018 09:00:00 17,2 12,1 4 2 E 1025,1 20 0,0
18.06.2018 08:00:00 14,3 11,3 4 2 ENE 1025,0 20 -
18.06.2018 07:00:00 13,7 10,3 4 2 SE 1024,8 20 0,0
18.06.2018 06:00:00 14,4 10,4 4 2 SSW 1024,5 20 0,0
18.06.2018 05:00:00 15,5 10,3 4 2 SE 1024,4 19 -
18.06.2018 04:00:00 16,7 10,3 4 2 S 1024,3 20 0,0
18.06.2018 03:00:00 18,4 10,0 4 2 ENE 1023,9 20 0,0
18.06.2018 02:00:00 19,7 9,3 2 1 NNE 1023,7 20 -
18.06.2018 01:00:00 21,1 9,0 4 2 N 1023,8 20 0,0
18.06.2018 00:00:00 22,4 10,2 4 2 ESE 1023,6 20 0,0
17.06.2018 23:00:00 24,2 13,1 5 3 N 1022,9 20 -
17.06.2018 22:00:00 26,4 13,2 4 2 N 1021,8 20 0,0
17.06.2018 21:00:00 29,0 12,4 5 3 NE 1021,2 20 0,0
17.06.2018 20:00:00 30,0 12,0 8 4 NE 1020,9 20 -
17.06.2018 19:00:00 30,8 11,7 5 3 NNE 1020,7 20 0,0
17.06.2018 18:00:00 30,9 10,8 5 3 NW 1020,8 20 0,0
17.06.2018 17:00:00 30,5 10,5 5 3 NNW 1020,8 20 -
17.06.2018 16:00:00 29,7 9,2 5 3 NNW 1021,0 20 0,0
17.06.2018 15:00:00 28,3 10,0 8 4 ENE 1021,5 20 0,0
17.06.2018 14:00:00 26,9 11,8 5 3 NE 1021,9 20 -
17.06.2018 13:00:00 24,7 12,0 4 2 NNE 1022,4 20 0,0
17.06.2018 12:00:00 22,2 12,7 5 3 NNE 1023,1 19 0,0
17.06.2018 11:00:00 20,1 12,1 4 2 NNE 1023,5 19 -
17.06.2018 10:00:00 18,8 12,3 4 2 NNW 1023,7 18 0,0
17.06.2018 09:00:00 17,4 12,5 4 2 N 1023,5 18 0,0
17.06.2018 08:00:00 16,9 12,2 4 2 N 1022,8 19 -
17.06.2018 07:00:00 17,0 12,5 4 2 N 1022,5 17 0,0
17.06.2018 06:00:00 17,2 12,7 2 1 NNE 1022,0 20 0,0
17.06.2018 05:00:00 17,3 12,8 4 2 NNE 1022,0 19 -
17.06.2018 04:00:00 17,4 12,9 4 2 NNE 1022,0 19 0,0
17.06.2018 03:00:00 17,5 13,0 4 2 NNW 1021,6 18 0,0
17.06.2018 02:00:00 17,5 13,0 4 2 NNE 1021,5 18 -
17.06.2018 01:00:00 18,1 13,2 5 3 NNW 1021,2 20 0,0
17.06.2018 00:00:00 19,0 13,6 4 2 S 1020,9 20 0,0
16.06.2018 23:00:00 20,9 14,1 8 4 ENE 1020,2 20 -
16.06.2018 22:00:00 23,6 15,1 4 2 NE 1018,9 20 0,0
16.06.2018 21:00:00 25,9 15,3 5 3 N 1017,9 20 0,0
16.06.2018 20:00:00 27,4 15,7 5 3 N 1017,1 20 -

tt = temperature
td = dewpoint
ff = wind speed
dd = wind direction
ppp = reduced air pressure
vv = visibility
rr = precipitation

Next stations